Погода в Форт-Сент-Джоне

Канада     56°14′44″N   120°50′46″W
темп.,
°C
ветер,
м/с
пор.,
м/с
влажн.,
%
обл.,
%
осадки,
мм/ч
давл.,
гПа
погр.,
м
12 мая, ср
ср1223:00+8в227170 0.0 101636
02:00+6юв226881 0.0 101713
05:00+6ююв2262100 0.0 101613
08:00+10ююв1255100 0.0 1015174
11:00+15зюз3539100 0.0 10131856
14:00+17зсз243476 0.0 10122217
17:00+18ссз353485 0.0 10111816
20:00+14ссв235256 0.0 101259
13 мая, чт
чт1323:00+9ссз227314 0.0 101522
02:00+6сз229180 0.0 101827
05:00+5сз229289 0.0 102012
08:00+9ссз127153 0.0 1020322
11:00+14ссв1151100 0.0 1019933
14:00+16юв124174 0.0 10181770
17:00+17всв223559 0.0 10161661
20:00+9ссв71182100 0.9 1018334
14 мая, пт
пт1423:00+8с238996 1.8 1020109
02:00+7с2493100 0.2 1021142
05:00+7всв1389100 0.6 1021317
08:00+7вюв2387100 0.1 1021323
11:00+10юв2378100 0.1 1019650
14:00+12юв2364100 0.1 1016850
17:00+15вюв2357100 0.3 1013945
20:00+12в2272100 0.5 101226
15 мая, сб
сб1523:00+9вюв1184100 0.6 101211
02:00+6ссз3596100 0.0 1015129
05:00+7ссз3790100 0.0 1016468
08:00+7сз1183100 0.0 1016424
11:00+11ююв1169100 0.0 1014677
14:00+15ююз1352100 0.0 10111321
17:00+15ю2455100 0.0 1010300
20:00+13в2268100 0.0 100934
16 мая, вс
вс1623:00+11вюв2374100 0.0 100964
02:00+8в1188100 0.0 100918
05:00+7ссз0091100 0.0 101010
08:00+10ю1176100 0.0 1008183
11:00+14ююз2558100 0.0 1007854
14:00+17юз4747100 0.0 10051868
17:00+17зюз595054 0.0 1004559
20:00+15юз4958100 0.0 1005238